Probability
0 0 0 0 0 0 0 0 0 0 0 0 0 0 0 0 0 0 0 0 0 0 0 0 0 0 0 0 0 0 0 0 0 0 0 0 0 0 0 0 0 0 0 0
0 0 0 0 0 0 0 0 0 0 0 0 0 0 0 0 0 0 0 0 0 0 0 0 0 0 0 0 0 0 0 0 0 0 0 0 0 0 0 0 0 0 0 0
0 0 0 0 0 0 0 0 0 0 0 0 0 0 0 0 0 0 0 0 0 0 0 0 0 0 0 0 0 0 0 0 0 0 0 0 0 0 0 0 0 0 0 0
0 0 0 0 0 0 0 0 0 0 0 0 0 0 0 0 0 0 0 0 0 0 0 0 0 0 0 0 0 0 0 0 0 0 0 0 0 0 0 0 0 0 0 0
0 0 0 0 0 0 0 0 0 0 0 0 0 0 0 0 0 0 0 0 0 0 0 0 0 0 0 0 0 0 0 0 0 0 0 0 0 0 0 0 0 0 0 0
0 0 0 0 0 0 0 0 0 0 0 0 0 0 0 0 0 0 0 0 0 0 0 0 0 0 0 0 0 0 0 0 0 0 0 0 0 0 0 0 0 0 0 0
0 0 0 0 0 0 0 0 0 0 0 0 0 0 0 0 0 0 0 0 0 0 0 0 0 0 0 0 0 0 0 0 0 0 0 0 0 0 0 0 0 0 0 0
0 0 0 0 0 0 0 0 0 0 0 0 0 0 0 0 0 0 0 0 0 0 0 0 0 0 0 0 0 0 0 0 0 0 0 0 0 0 0 0 0 0 0 0
0 0 0 0 0 0 0 0 0 0 0 0 0 0 0 0 0 0 0 0 0 0 0 0 0 0 0 0 0 0 0 0 0 0 0 0 0 0 0 0 0 0 0 0
0 0 0 0 0 0 0 0 0 0 0 0 0 0 0 0 0 0 0 0 0 0 0 0 0 0 0 0 0 0 0 0 0 0 0 0 0 0 0 0 0 0 0 0
0 0 0 0 0 0 0 0 0 0 0 0 0 0 0 0 0 0 0 0 0 0 0 0 0 0 0 0 0 0 0 0 0 0 0 0 0 0 0 0 0 0 0 0
0 0 0 0 0 0 0 0 0 0 0 0 0 0 0 0 0 0 0 0 0 0 0 0 0 0 0 0 0 0 0 0 0 0 0 0 0 0 0 0 0 0 0 0
0 0 0 0 0 0 0 0 0 0 0 0 0 0 0 0 0 0 0 0 0 0 0 0 0 0 0 0 0 0 0 0 0 0 0 0 0 0 0 0 0 0 0 0
0 0 0 0 0 0 0 0 0 0 0 0 0 0 0 0 0 0 0 0 0 0 0 0 0 0 0 0 0 0 0 0 0 0 0 0 0 0 0 0 0 0 0 0
0 0 0 0 0 0 0 0 0 0 0 0 0 0 0 0 0 0 0 0 0 0 0 0 0 0 0 0 0 0 0 0 0 0 0 0 0 0 0 0 0 0 0 0
0 0 0 0 0 0 0 0 0 0 0 0 0 0 0 0 0 0 0 0 0 0 0 0 0 0 0 0 0 0 0 0 0 0 0 0 0 0 0 0 0 0 0 0
0 0 0 0 0 0 0 0 0 0 0 0 0 0 0 0 0 0 0 0 0 0 0 0 0 0 0 0 0 0 0 0 0 0 0 0 0 0 0 0 0 0 0 0
0 0 0 0 0 0 0 0 0 0 0 0 0 0 0 0 0 0 0 0 0 0 0 0 0 0 0 0 0 0 0 0 0 0 0 0 0 0 0 0 0 0 0 0
0 0 0 0 0 0 0 0 0 0 0 0 0 0 0 0 0 0 0 0 0 0 0 0 0 0 0 0 0 0 0 0 0 0 0 0 0 0 0 0 0 0 0 0
0 0 0 0 0 0 0 0 0 0 0 0 0 0 0 0 0 0 0 0 0 0 0 0 0 0 0 0 0 0 0 0 0 0 0 0 0 0 0 0 0 0 0 0
0 0 0 0 0 0 0 0 0 0 0 0 0 0 0 0 0 0 0 0 0 0 0 0 0 0 0 0 0 0 0 0 0 0 0 0 0 0 0 0 0 0 0 0
0 0 0 0 0 0 0 0 0 0 0 0 0 0 0 0 0 0 0 0 0 0 0 0 0 0 0 0 0 0 0 0 0 0 0 0 0 0 0 0 0 0 0 0
0 0 0 0 0 0 0 0 0 0 0 0 0 0 0 0 0 0 0 0 0 0 0 0 0 0 0 0 0 0 0 0 0 0 0 0 0 0 0 0 0 0 0 0
0 0 0 0 0 0 0 0 0 0 0 0 0 0 0 0 0 0 0 0 0 0 0 0 0 0 0 0 0 0 0 0 0 0 0 0 0 0 0 0 0 0 0 0
0 0 0 0 0 0 0 0 0 0 0 0 0 0 0 0 0 0 0 0 0 0 0 0 0 0 0 0 0 0 0 0 0 0 0 0 0 0 0 0 0 0 0 0
0 0 0 0 0 0 0 0 0 0 0 0 0 0 0 0 0 0 0 0 0 0 0 0 0 0 0 0 0 0 0 0 0 0 0 0 0 0 0 0 0 0 0 0
0 0 0 0 0 0 0 0 0 0 0 0 0 0 0 0 0 0 0 0 0 0 0 0 0 0 0 0 0 0 0 0 0 0 0 0 0 0 0 0 0 0 0 0
Wind_Speed
6 5 4 7 9 9 11 11 11 11 12 14 10 8 6 4 3 3 4 4 4 3 3 2 2 3 2 2 2 2 2 2 2 2 3 3 3 3 3 3 3 4 4 4
5 4 6 9 12 13 14 14 15 16 17 13 9 5 5 4 4 5 5 5 4 4 3 3 3 3 3 3 2 2 2 2 2 2 2 3 3 3 3 3 3 4 4 4
5 3 5 11 12 14 11 11 12 15 13 6 6 5 5 5 5 6 6 5 5 4 4 4 3 3 3 3 2 2 2 2 2 2 3 3 3 3 3 4 4 4 4 4
2 1 11 7 2 8 10 11 11 10 8 7 7 6 5 5 6 6 5 5 4 4 4 3 3 3 3 2 2 2 2 3 3 3 3 3 3 3 4 4 4 4 4 4
4 6 10 8 4 5 8 9 9 10 10 8 5 5 5 4 5 5 5 4 4 3 3 2 2 2 2 2 2 2 3 3 3 3 3 4 4 4 4 4 4 4 4 4
5 7 10 5 1 2 3 7 4 7 8 5 2 5 4 0 2 3 3 2 2 2 2 2 2 2 2 3 3 3 4 3 3 3 4 4 4 4 4 4 5 4 4 5
8 9 11 4 2 4 6 5 1 4 6 5 6 6 3 1 2 2 2 2 1 2 2 2 2 2 3 3 3 4 3 3 3 3 4 4 4 4 4 4 4 4 5 5
7 9 11 4 6 8 5 1 2 3 4 5 6 4 3 3 3 3 2 1 1 1 2 2 1 2 3 3 3 3 3 3 3 3 3 3 3 3 4 4 4 4 4 4
11 9 3 6 7 4 2 3 3 3 4 4 4 5 4 4 3 3 2 2 1 1 2 2 1 2 3 3 3 3 3 3 3 3 3 3 3 3 3 3 3 4 3 3
7 10 7 7 7 5 4 5 4 4 3 4 5 5 4 4 3 3 2 1 1 1 2 2 2 2 3 3 3 3 3 3 3 3 3 2 2 3 3 3 3 3 3 4
8 8 6 7 8 8 6 5 4 4 4 5 5 5 5 4 3 3 2 1 1 2 3 3 3 3 3 3 3 3 3 3 3 3 3 3 3 3 4 4 4 5 4 4
8 5 6 5 3 4 5 6 5 5 5 4 4 5 4 3 3 2 2 2 2 3 3 3 3 3 3 3 3 3 3 3 3 3 3 3 3 3 4 6 7 8 8 6
6 3 5 5 3 2 3 4 3 4 5 4 3 3 3 3 2 2 2 2 3 3 4 4 4 4 3 3 3 3 4 3 3 3 3 3 3 3 4 4 5 6 6 7
4 2 4 4 3 2 2 2 1 1 2 2 2 1 2 2 2 2 3 3 3 3 3 4 4 4 4 3 3 3 4 3 3 3 3 3 3 3 3 4 4 4 5 7
5 5 5 3 2 1 1 0 1 2 1 1 1 1 2 2 3 4 3 2 2 3 3 4 4 5 3 3 3 3 3 3 3 3 3 3 3 3 3 4 4 4 4 4
3 2 2 3 4 3 2 2 3 4 2 2 2 3 3 3 3 3 3 2 3 4 4 4 5 5 3 3 3 3 3 4 3 3 3 3 3 3 3 3 3 4 4 4
3 3 3 4 5 4 4 4 4 4 3 4 4 3 2 2 3 4 4 3 4 5 5 5 6 4 3 3 4 3 3 3 3 3 3 3 3 3 3 3 3 4 4 4
6 5 5 5 5 4 4 4 4 4 4 4 3 2 3 3 5 5 4 4 4 5 5 5 5 4 4 4 3 3 3 3 3 3 3 3 3 3 3 3 4 4 4 4
3 4 4 4 4 4 4 4 4 4 4 3 3 4 4 5 5 4 3 4 5 6 5 4 5 4 4 4 4 3 3 3 3 3 3 3 3 3 3 3 4 4 4 3
2 2 3 3 2 3 4 3 3 3 3 3 3 4 5 5 4 4 4 5 6 5 4 4 4 4 4 4 4 3 3 4 4 3 3 3 3 3 3 3 4 4 3 3
2 2 3 3 3 3 3 3 3 4 4 3 4 5 6 5 4 4 4 6 5 4 4 5 4 4 4 3 4 3 3 3 3 3 3 3 3 3 3 4 4 4 4 3
2 2 3 3 3 3 3 3 3 4 4 4 4 4 4 5 4 4 6 6 5 4 4 4 4 5 4 4 3 3 3 4 4 3 3 3 4 4 4 4 4 4 3 3
2 2 3 3 3 3 3 3 3 4 4 4 5 5 5 5 4 4 5 3 3 5 4 4 5 6 5 3 3 3 4 4 4 4 4 4 4 4 4 4 4 3 3 3
2 2 3 2 2 2 3 4 3 3 4 4 4 5 5 4 4 4 4 4 4 5 4 5 6 5 4 3 3 3 3 4 4 4 4 3 3 3 4 4 4 4 4 4
2 2 2 2 3 3 4 3 3 3 3 3 4 4 4 4 4 4 3 4 4 4 4 4 5 4 3 3 3 3 3 3 3 3 3 3 3 3 4 4 4 4 4 4
2 2 2 3 3 3 2 2 2 2 2 3 3 3 3 2 3 3 3 3 4 4 3 3 3 3 2 2 3 3 3 3 3 3 3 3 4 4 4 4 5 4 4 4
1 1 1 2 2 2 2 2 3 3 3 3 3 3 3 2 3 3 3 3 3 2 2 2 2 2 2 2 2 3 3 3 3 3 3 3 3 4 4 5 4 4 4 4
Wind_Direction
271 277 256 247 239 222 224 233 244 257 261 272 283 288 293 298 296 287 276 269 264 265 266 261 265 269 271 274 272 260 241 235 247 262 268 265 262 259 257 257 259 261 262 261
267 265 264 263 249 235 238 241 248 264 270 278 293 285 277 272 267 268 270 265 264 264 264 263 263 268 272 274 272 260 249 249 254 258 262 264 265 262 257 255 258 257 260 262
256 290 281 258 235 221 225 227 228 243 257 281 279 267 265 267 260 259 265 267 263 260 260 264 265 257 259 266 262 248 250 259 262 256 256 262 267 264 259 258 258 258 261 262
245 231 242 251 226 216 225 240 235 251 267 274 276 288 277 267 260 263 265 266 265 263 264 272 275 265 258 256 245 238 245 255 260 258 257 263 264 262 266 264 258 258 261 263
204 241 266 278 235 196 212 251 230 236 257 276 308 294 265 251 247 253 263 265 268 267 264 270 269 264 251 249 251 251 257 263 266 259 258 260 259 262 265 264 262 260 260 263
203 232 248 255 152 168 188 255 227 221 242 255 251 271 284 320 266 266 267 269 271 274 267 264 270 257 241 246 248 259 266 269 269 262 257 257 260 264 264 260 261 263 265 264
220 242 260 258 159 165 210 256 196 218 229 219 228 261 311 306 277 266 267 271 266 262 259 262 264 247 246 251 258 272 277 274 270 261 258 259 263 262 261 258 260 260 263 264
204 227 248 162 159 204 244 329 228 241 234 232 248 265 269 266 265 264 271 276 264 264 276 282 269 245 253 263 278 283 278 272 270 268 265 260 258 263 261 257 257 258 259 266
205 225 266 176 211 246 292 266 261 260 256 244 252 261 266 269 263 262 264 269 278 272 294 305 295 261 260 278 290 280 274 272 274 277 273 267 258 258 258 253 253 258 256 264
239 251 250 238 250 267 268 265 277 275 260 245 251 261 264 262 257 258 261 266 275 266 278 290 294 286 276 285 287 271 264 270 273 273 272 270 266 261 257 254 252 256 259 266
242 264 281 255 245 256 261 265 271 269 258 249 251 259 260 260 255 254 259 265 252 252 264 279 292 294 300 296 281 268 268 270 274 271 274 275 270 264 262 259 258 259 259 261
234 228 231 257 256 249 253 263 265 265 265 260 249 252 255 255 256 256 259 273 268 268 273 283 288 292 300 300 287 269 267 271 273 274 275 273 275 280 273 270 279 275 272 274
252 268 248 272 289 283 266 270 270 255 254 263 263 256 251 259 263 261 264 268 268 274 281 286 288 292 300 297 285 270 267 272 275 275 274 276 278 280 288 294 285 285 289 289
254 269 264 262 269 288 270 280 287 274 270 266 270 280 275 274 275 265 266 273 277 277 279 282 284 286 297 292 282 277 275 273 272 273 275 276 276 276 278 287 298 298 298 297
247 240 244 264 294 307 304 279 252 263 271 285 290 267 256 256 264 272 284 289 278 270 274 279 279 285 299 289 279 279 280 277 274 276 274 273 274 274 272 274 279 290 301 305
257 247 230 234 245 251 246 237 242 255 255 263 263 263 263 263 275 282 281 271 263 270 275 275 276 285 289 279 276 272 269 272 273 270 270 268 267 267 268 271 275 280 286 297
214 238 226 235 241 245 243 241 242 247 249 249 254 266 273 275 279 277 277 272 265 270 273 273 276 283 277 267 265 268 270 269 266 265 263 264 264 263 263 264 266 271 276 286
227 233 227 228 229 235 244 241 239 242 245 256 259 252 244 243 255 267 278 287 284 279 274 276 272 270 267 264 259 262 261 262 261 260 260 257 259 259 257 258 262 267 276 284
232 236 239 238 234 229 239 243 245 248 252 246 242 246 251 253 256 265 270 270 270 275 280 277 278 273 265 262 254 249 249 254 257 258 258 256 254 253 254 255 259 264 271 277
244 243 239 246 244 231 238 247 249 253 252 239 242 253 260 261 256 255 254 256 257 266 279 281 278 271 266 264 265 254 249 249 253 256 255 253 253 255 254 255 257 259 261 262
242 246 243 241 249 249 245 246 244 251 254 237 236 247 257 266 257 247 251 264 269 267 267 265 262 264 261 259 252 248 246 247 248 250 251 251 252 254 254 254 254 254 257 259
234 236 245 243 241 258 258 243 238 245 249 246 246 250 256 262 257 252 247 257 274 277 273 265 261 260 258 253 247 243 244 246 248 248 248 247 248 250 252 254 255 257 257 257
242 240 243 241 242 258 273 258 245 245 246 247 248 247 249 256 256 256 267 265 267 268 268 265 266 266 259 246 244 243 244 245 246 246 246 247 248 250 253 256 256 255 254 252
243 244 249 251 234 243 262 266 258 254 255 261 257 252 252 258 260 253 265 273 272 275 275 271 269 270 267 258 250 248 249 251 250 250 251 252 251 252 253 253 254 255 253 253
243 246 242 234 238 250 259 270 272 265 260 262 265 261 253 252 256 270 275 271 271 274 274 272 272 273 266 258 252 251 253 254 254 255 255 254 254 253 253 252 249 251 252 252
245 251 255 254 256 261 260 257 260 263 260 268 276 271 267 265 262 265 266 265 265 265 266 269 268 264 258 255 255 256 259 262 259 253 251 254 255 256 255 253 254 252 253 253
267 268 269 275 270 256 251 250 254 260 256 256 272 279 279 279 273 269 269 269 271 269 270 272 269 264 261 260 261 262 262 263 263 262 260 257 255 255 255 254 254 254 253 252